Regional Weather Roundup
Issued by NWS Kansas City/Pleasant Hill, MO

Home | Current Version | Previous Version | Text Only | Print | Product List | Glossary On
Versions: 1 2 3 4 5 6 7 8 9 10 11 12 13 14 15 16 17 18 19 20 21 22 23 24 25 26 27 28 29 30 31 32 33 34 35 36 37 38 39 40 41 42 43 44 45 46 47 48 49 50
165
ASUS43 KEAX 242010
RWREAX

WEATHER ROUNDUP FOR EASTERN KANSAS AND NORTHWEST MISSOURI
NATIONAL WEATHER SERVICE KANSAS CITY/PLEASANT HILL MO
300 PM CDT SAT SEP 24 2016

KSZ040-057-103>105-MOZ028-029-037-043-242100-
...KANSAS CITY METROPOLITAN AREA...

CITY           SKY/WX    TMP DP  RH WIND       PRES   REMARKS
K.C. INTL      MOSUNNY   88  70  55 S16       29.94F HX  93
K.C. DOWNTOWN  MOSUNNY   90  69  50 S18G25    29.94F HX  94
LEES SUMMIT    SUNNY     88  71  57 SE15G21   29.96F HX  94
OLATHE - IXD   SUNNY     88  70  55 S17       29.95F HX  93
OLATHE - OJC   MOSUNNY   85  70  60 S20       29.95F
LAWRENCE       MOSUNNY   89  65  44 SE20G30   29.91F HX  91

$$

MOZ001>008-011>017-020>025-030>033-038>040-044>046-053-054-242100-
...NORTHERN AND CENTRAL MISSOURI...

CITY           SKY/WX    TMP DP  RH WIND       PRES   REMARKS
ST. JOSEPH     MOSUNNY   88  69  53 S16       29.92F HX  92
MOSBY          CLEAR     88  68  51 SE9       29.95F HX  91
WHITEMAN AFB   PTSUNNY   85  71  62 S12       29.98F HX  91
CLINTON        MOSUNNY   82  68  61 SE9       30.01F
SEDALIA        SUNNY     89  70  53 S13       30.02F HX  94
WARSAW         NOT AVBL
CHILLICOTHE      N/A     88  69  53 SE9       29.98F HX  92
KIRKSVILLE     CLOUDY    82  69  64 S7        30.03F

$$

MOZ041-047>049-056>058-063>065-088>090-097-242100-
...EASTERN AND SOUTHERN MISSOURI...

CITY           SKY/WX    TMP DP  RH WIND       PRES   REMARKS
ST. LOUIS INTL MOSUNNY   91  63  39 VRB3      30.06F HX  92
SPIRIT OF STL  MOSUNNY   90  65  43 CALM      30.04F HX  92
COLUMBIA       MOSUNNY   86  70  58 SE7       30.04F HX  90
JEFFERSON CITY MOSUNNY   88  70  55 SE6       30.02F HX  93
ROLLA          PTSUNNY   85  68  56 S6        30.06F
OSAGE BEACH    CLOUDY    85  72  65 SE7       30.04F HX  91
SPRINGFIELD    MOSUNNY   90  65  43 S7        30.02F HX  92
BRANSON        PTSUNNY   86  70  58 S3        30.06F HX  90
JOPLIN         PTSUNNY   87  70  56 S12G18    30.01F HX  92
WEST PLAINS    SUNNY     87  65  47 SE6       30.09F

$$

IAZ060-094-KSZ022-034>040-054-083-096-NEZ052-066-093-242100-
...KANSAS...SOUTHEAST NEBRASKA AND IOWA...

CITY           SKY/WX    TMP DP  RH WIND       PRES   REMARKS
TOPEKA         SUNNY     90  69  50 S15G28    29.89F HX  94
MANHATTAN      CLOUDY    76  70  82 W15G22    29.89F THUNDER
EMPORIA        SUNNY     87  70  56 S22G29    29.91F HX  92
CHANUTE        MOSUNNY   90  70  51 SE18G26   29.93F HX  95
WICHITA        CLOUDY    77  69  76 S20G33    29.92S THUNDER
OMAHA          RAIN      74  70  87 SE10      29.92R FOG
LINCOLN        LGT RAIN  74  69  85 SW7       29.92F
FALLS CITY     CLOUDY    86  70  58 S18G30    29.89F HX  90
LAMONI         MOSUNNY   85  70  60 SE16G22   29.97F
DES MOINES     MOSUNNY   86  68  54 S18       29.97F

$$





USA.gov is the U.S. government's official web portal to all federal, state and local government web resources and services.